This is the latest recevied weather packets stored in our database for station/object N4QD-13. If no packets are shown the sender has not sent any weather packets the latest 10 day(s).
| Time | Temp. | Humidity | Pressure | Rain* | Wind** | Luminosity | Snow |
|---|---|---|---|---|---|---|---|
| 1777655050 | 16.67° C | 52% | 1014.2 hPa | 0 mm | - | 738 W/m² | - |
| 1777654748 | 17.22° C | 50% | 1014.4 hPa | 0 mm | - | 305 W/m² | - |
| 1777654446 | 17.22° C | 52% | 1014.3 hPa | 0 mm | - | 726 W/m² | - |
| 1777654143 | 17.22° C | 51% | 1014.5 hPa | 0 mm | - | 730 W/m² | - |
| 1777653840 | 17.22° C | 50% | 1014.4 hPa | 0 mm | - | 745 W/m² | - |
| 1777653536 | 17.22° C | 51% | 1014.6 hPa | 0 mm | - | 741 W/m² | - |
| 1777653233 | 17.22° C | 50% | 1014.7 hPa | 0 mm | - | 734 W/m² | - |
| 1777652930 | 16.11° C | 52% | 1014.6 hPa | 0 mm | - | 731 W/m² | - |
| 1777652626 | 16.11° C | 52% | 1014.6 hPa | 0 mm | - | 730 W/m² | - |
| 1777652323 | 16.11° C | 52% | 1014.9 hPa | 0 mm | - | 724 W/m² | - |
| 1777652020 | 16.67° C | 51% | 1014.8 hPa | 0 mm | - | 715 W/m² | - |
| 1777651717 | 15.56° C | 53% | 1015 hPa | 0 mm | - | 721 W/m² | - |
| 1777651413 | 15.56° C | 57% | 1015 hPa | 0 mm | - | 719 W/m² | - |
| 1777651111 | 16.11° C | 53% | 1015.1 hPa | 0 mm | - | 709 W/m² | - |
| 1777650808 | 15.56° C | 57% | 1015.5 hPa | 0 mm | - | 709 W/m² | - |
| 1777650504 | 15.56° C | 58% | 1015.4 hPa | 0 mm | - | 701 W/m² | - |
| 1777650202 | 15.56° C | 57% | 1015.5 hPa | 0 mm | - | 694 W/m² | - |
| 1777649899 | 15.56° C | 58% | 1015.6 hPa | 0 mm | - | 715 W/m² | - |
| 1777649597 | 15° C | 60% | 1015.9 hPa | 0 mm | - | 695 W/m² | - |
| 1777649292 | 15° C | 65% | 1015.9 hPa | 0 mm | - | 670 W/m² | - |
| 1777648989 | 14.44° C | 63% | 1015.9 hPa | 0 mm | - | 644 W/m² | - |
| 1777648687 | 15° C | 67% | 1016.1 hPa | 0 mm | - | 672 W/m² | - |
| 1777648383 | 14.44° C | 64% | 1016.1 hPa | 0 mm | - | 651 W/m² | - |
| 1777648079 | 13.33° C | 66% | 1016.3 hPa | 0 mm | - | 647 W/m² | - |
| 1777647776 | 13.33° C | 63% | 1016.3 hPa | 0 mm | - | 619 W/m² | - |
* Rain latest hour (hover to see other rain measurements)
** Current wind speed in m/s (hover to see current wind gust speed)